Weather History for Coolangatta Airport Aws, Queensland

Change the Weather History Date:

Sunday, June 30, 2013

  Actual Average Record
Temperature  
Mean Temperature 58 °F -  
Max Temperature 60 °F - - ()
Min Temperature 55 °F - - ()
Degree Days  
Heating Degree Days 8    
Growing Degree Days 8 (Base 50)    
Moisture  
Dew Point 55 °F    
Average Humidity 89    
Maximum Humidity 94    
Minimum Humidity 82    
Precipitation  
Precipitation 0.43 in - - ()
Sea Level Pressure  
Sea Level Pressure 30.07 in    
Wind  
Wind Speed 8 mph ()    
Max Wind Speed 14 mph    
Max Gust Speed -    
Visibility 5.5 miles    
Events      
T = Trace of Precipitation, MM = Missing Value Source: Averaged Metar Reports

Daily Weather History Graph

Daily Weather History Graph

Search for Another Location

Airport:

Trip Planner

Search our weather history database for the weather conditions in past years. The results will help you decide how hot, cold, wet, or windy it might be!

Date:

Astronomy

Jun. 30, 2013 Rise Set
Actual Time 6:38 AM AEST 5:00 PM AEST
Civil Twilight 6:12 AM AEST 5:26 PM AEST
Nautical Twilight 5:43 AM AEST 5:55 PM AEST
Astronomical Twilight 5:14 AM AEST 6:24 PM AEST
Moon No Moon Rise 11:19 AM AEST (6/30)
Length of Visible Light 11h 14m
Length of Day
10h 22m
Waning Gibbous, 51% of the Moon is Illuminated
Jun 30
Waning Gibbous
Jun 30
Last Quarter
Jul 8
New
Jul 16
First Quarter
Jul 23
Full

Hourly Weather History & Observations

Time (AEST) Temp. Dew Point Humidity Pressure Visibility Wind Dir Wind Speed Gust Speed Precip Events Conditions
12:00 AM 59 °F 57 °F 89% 30.12 in - East 3.5 mph - -   Overcast
12:00 AM 59.0 °F 57.2 °F 94% 30.09 in 6.2 mi East 3.5 mph - N/A   Overcast
12:30 AM 59.0 °F 55.4 °F 88% 30.09 in 6.2 mi SSE 6.9 mph - N/A   Overcast
1:00 AM 59.0 °F 55.4 °F 88% 30.09 in 6.2 mi SSE 5.8 mph - N/A   Overcast
1:11 AM 59.0 °F 57.2 °F 94% 30.09 in 3.7 mi SSE 5.8 mph - N/A   Overcast
1:30 AM 59.0 °F 55.4 °F 88% 30.09 in 6.2 mi SSE 3.5 mph - N/A   Overcast
1:32 AM 57.2 °F 55.4 °F 94% 30.09 in 6.2 mi SE 3.5 mph - N/A   Overcast
2:00 AM 57.2 °F 55.4 °F 94% 30.09 in 6.2 mi SSW 4.6 mph - N/A   Overcast
2:30 AM 59.0 °F 55.4 °F 88% 30.09 in 6.2 mi SSE 5.8 mph - N/A   Overcast
3:00 AM 58 °F 56 °F 91% 30.10 in 4 mi South 6.9 mph - -   Overcast
3:00 AM 59.0 °F 55.4 °F 88% 30.09 in 3.7 mi South 6.9 mph - N/A   Overcast
3:13 AM 57.2 °F 55.4 °F 94% 30.09 in 6.2 mi SSW 6.9 mph - N/A   Overcast
3:26 AM 57.2 °F 55.4 °F 94% 30.09 in 3.7 mi South 8.1 mph - N/A   Overcast
3:30 AM 57.2 °F 55.4 °F 94% 30.09 in 3.7 mi South 8.1 mph - N/A   Overcast
3:43 AM 57.2 °F 55.4 °F 94% 30.09 in 6.2 mi South 6.9 mph - N/A   Overcast
4:00 AM 57.2 °F 55.4 °F 94% 30.06 in 6.2 mi South 10.4 mph - N/A   Overcast
4:30 AM 57.2 °F 55.4 °F 94% 30.09 in 6.2 mi SSW 8.1 mph - N/A   Overcast
5:00 AM 57.2 °F 55.4 °F 94% 30.06 in 6.2 mi SSW 10.4 mph - N/A   Overcast
5:30 AM 57.2 °F 55.4 °F 94% 30.06 in 6.2 mi SSW 10.4 mph - N/A   Mostly Cloudy
6:00 AM 58 °F 54 °F 83% 30.10 in - SSW 12.7 mph - -   Overcast
6:00 AM 59.0 °F 53.6 °F 82% 30.09 in 6.2 mi SSW 12.7 mph - N/A   Overcast
6:30 AM 57.2 °F 53.6 °F 88% 30.09 in 6.2 mi SSW 9.2 mph - N/A   Overcast
7:00 AM 59.0 °F 53.6 °F 82% 30.09 in 6.2 mi South 9.2 mph - N/A   Overcast
7:35 AM 57.2 °F 55.4 °F 94% 30.12 in 3.7 mi SSE 6.9 mph - N/A   Overcast
8:00 AM 57.2 °F 55.4 °F 94% 30.12 in 4.3 mi SSW 6.9 mph - N/A   Overcast
8:30 AM 57.2 °F 55.4 °F 94% 30.12 in 5.0 mi SSW 11.5 mph - N/A   Overcast
8:36 AM 57.2 °F 55.4 °F 94% 30.12 in 6.2 mi SSW 11.5 mph - N/A   Overcast
9:00 AM 58 °F 55 °F 87% 30.13 in - SSW 11.5 mph - -   Overcast
9:00 AM 59.0 °F 55.4 °F 88% 30.12 in 6.2 mi SSW 11.5 mph - N/A   Overcast
9:30 AM 59.0 °F 55.4 °F 88% 30.12 in 6.2 mi SSW 10.4 mph - N/A   Overcast
10:00 AM 59.0 °F 55.4 °F 88% 30.12 in 6.2 mi SSW 10.4 mph - N/A   Overcast
10:30 AM 59.0 °F 55.4 °F 88% 30.09 in 6.2 mi SSW 11.5 mph - N/A   Overcast
11:00 AM 59.0 °F 55.4 °F 88% 30.09 in 6.2 mi SSW 13.8 mph - N/A   Overcast
11:30 AM 59.0 °F 55.4 °F 88% 30.09 in 6.2 mi SSW 12.7 mph - N/A   Overcast
12:00 PM 60 °F 56 °F 82% 30.09 in - SSW 13.8 mph - -   Overcast
12:00 PM 60.8 °F 55.4 °F 82% 30.06 in 6.2 mi SSW 13.8 mph - N/A   Overcast
12:30 PM 59.0 °F 55.4 °F 88% 30.06 in 6.2 mi SSW 13.8 mph - N/A   Overcast
1:00 PM 59.0 °F 55.4 °F 88% 30.06 in 6.2 mi SSW 11.5 mph - N/A   Overcast
1:30 PM 60.8 °F 55.4 °F 82% 30.04 in 6.2 mi SSW 11.5 mph - N/A   Overcast
2:00 PM 59.0 °F 55.4 °F 88% 30.04 in 6.2 mi SSW 12.7 mph - N/A   Overcast
2:30 PM 59.0 °F 53.6 °F 82% 30.04 in 6.2 mi SSW 11.5 mph - N/A   Overcast
3:00 PM 58 °F 55 °F 86% 30.06 in 5 mi South 10.4 mph - -   Overcast
3:00 PM 59.0 °F 55.4 °F 88% 30.06 in 5.0 mi South 10.4 mph - N/A   Overcast
3:08 PM 59.0 °F 55.4 °F 88% 30.04 in 3.7 mi South 11.5 mph - N/A   Overcast
3:27 PM 57.2 °F 55.4 °F 94% 30.04 in 5.0 mi SSW 12.7 mph - N/A   Overcast
3:30 PM 57.2 °F 55.4 °F 94% 30.04 in 5.0 mi SSW 12.7 mph - N/A   Overcast
4:00 PM 57.2 °F 53.6 °F 88% 30.04 in 6.2 mi SSW 11.5 mph - N/A   Overcast
4:30 PM 57.2 °F 53.6 °F 88% 30.04 in 4.3 mi SSW 11.5 mph - N/A   Overcast
5:00 PM 57.2 °F 53.6 °F 88% 30.04 in 5.0 mi SSW 11.5 mph - N/A   Overcast
5:30 PM 57.2 °F 53.6 °F 88% 30.04 in 6.2 mi SSW 11.5 mph - N/A   Overcast
6:00 PM 56 °F 53 °F 86% 30.07 in 4 mi SSW 11.5 mph - -   Overcast
6:00 PM 57.2 °F 53.6 °F 88% 30.06 in 4.3 mi SSW 11.5 mph - N/A   Overcast
6:30 PM 55.4 °F 53.6 °F 94% 30.06 in 5.0 mi SSW 12.7 mph - N/A   Overcast
7:00 PM 57.2 °F 51.8 °F 82% 30.06 in 6.2 mi SSW 11.5 mph - N/A   Overcast
7:30 PM 57.2 °F 53.6 °F 88% 30.06 in 6.2 mi SSW 13.8 mph - N/A   Overcast
8:00 PM 57.2 °F 53.6 °F 88% 30.04 in 6.2 mi SSW 11.5 mph - N/A   Overcast
8:30 PM 57.2 °F 53.6 °F 88% 30.04 in 6.2 mi SSW 11.5 mph - N/A   Overcast
9:00 PM 57 °F 53 °F 83% 30.06 in - SSW 9.2 mph - -   Overcast
9:00 PM 57.2 °F 53.6 °F 88% 30.04 in 6.2 mi SSW 9.2 mph - N/A   Overcast
9:30 PM 57.2 °F 53.6 °F 88% 30.04 in 6.2 mi South 8.1 mph - N/A   Overcast
10:00 PM 57.2 °F 53.6 °F 88% 30.04 in 6.2 mi SSW 10.4 mph - N/A   Overcast
10:34 PM 57.2 °F 53.6 °F 88% 30.04 in 3.7 mi SSW 11.5 mph - N/A   Overcast
11:00 PM 57.2 °F 53.6 °F 88% 30.04 in 5.0 mi SSW 11.5 mph - N/A   Overcast
11:05 PM 57.2 °F 53.6 °F 88% 30.04 in 6.2 mi SSW 11.5 mph - N/A   Overcast
11:36 PM 57.2 °F 53.6 °F 88% 30.04 in 3.7 mi SSW 10.4 mph - N/A   Overcast